Regional Weather Roundup
Issued by NWS

Home | Current Version | Previous Version | Text Only | Print | Product List | Glossary Off
Versions: 1 2 3 4 5 6 7 8 9 10 11 12 13 14 15 16 17 18 19 20 21 22 23 24 25 26 27 28 29 30 31 32 33 34 35 36 37 38 39 40 41 42 43 44 45 46 47 48 49 50

278
ASUS43 KMKX 130411
RWRWI

WISCONSIN REGIONAL WEATHER ROUNDUP
NATIONAL WEATHER SERVICE MILWAUKEE/SULLIVAN WI
1000 PM CST TUE DEC 12 2017

NOTE: "FAIR" INDICATES FEW OR NO CLOUDS BELOW 12,000 FEET WITH NO
SIGNIFICANT WEATHER AND/OR OBSTRUCTIONS TO VISIBILITY.

WIZ001-002-006>008-014>016-023>028-130500-
NORTHWEST WISCONSIN

CITY           SKY/WX    TMP DP  RH WIND       PRES   REMARKS
SUPERIOR ARPT  CLOUDY    15  10  81 SE3       29.75F
ASHLAND        LGT SNOW  13   8  81 SE6       29.78F WCI   4
HAYWARD        CLOUDY    13   7  77 SE7       29.74F WCI   3
SIREN          CLOUDY    17  11  80 SE8       29.70F WCI   6
CUMBERLAND     CLOUDY    14  10  85 SE10      29.71F WCI   1
RICE LAKE      CLOUDY    15  11  85 SE8       29.75F WCI   4
CHETEK         CLOUDY    14  10  82 SE8       29.75F WCI   3
LADYSMITH      CLOUDY    13   9  81 SE7       29.79F WCI   3
EAU CLAIRE     CLOUDY    17  11  77 SE9       29.77F WCI   6
MENOMONIE      CLOUDY    18  13  80 E8        29.77F WCI   8
NEW RICHMOND   CLOUDY    21  15  77 SE9       29.71F WCI  11
OSCEOLA        CLOUDY    21  15  80 SE8       29.73F WCI  11
$$

WIZ003>005-009-010-017-018-130500-
NORTH CENTRAL WISCONSIN

CITY           SKY/WX    TMP DP  RH WIND       PRES   REMARKS
MANITOWISH WTR LGT SNOW   9   6  90 S5        29.75F WCI   0
ARBOR VITAE    LGT SNOW  11   7  82 S3        29.76F
WOODRUFF       LGT SNOW  11   7  82 S3        29.76F
RHINELANDER    LGT SNOW  11   5  77 SW7       29.79F WCI   0
EAGLE RIVER    CLOUDY    10   3  74 CALM      29.77F
LAND O LAKES   CLOUDY     8   4  82 CALM      29.78F
PHILLIPS       FLURRIES  10   5  79 S7        29.77F WCI   0
TOMAHAWK       LGT SNOW  10   6  82 CALM      29.80F
MEDFORD        CLOUDY    11   6  81 S7        29.79F WCI   1
MERRILL        LGT SNOW  11   6  79 CALM      29.83F
$$

WIZ029-030-035-036-043>047-130500-
CENTRAL WISCONSIN

CITY           SKY/WX    TMP DP  RH WIND       PRES   REMARKS
WAUSAU         LGT SNOW  12   6  77 S7        29.82F WCI   1
MOSINEE        LGT SNOW  12   7  79 S6        29.84F WCI   3
MARSHFIELD     FLURRIES  13   7  77 S6        29.80F WCI   4
STEVENS POINT  MIX PCPN  12   5  73 S6        29.85F WCI   3
WAUPACA        FLURRIES  17   4  55 SW3       29.89F
WAUTOMA        FLURRIES  15   6  67 S5        29.90F WCI   8
WISC RAPIDS    FLURRIES  15   7  70 SE3       29.86F
CAMP DOUGLAS   CLOUDY    18  10  73 SE5       29.85F WCI  11
$$

WIZ011>013-019>022-031-037>040-048>050-130500-
NORTHEAST WISCONSIN

CITY           SKY/WX    TMP DP  RH WIND       PRES   REMARKS
ANTIGO         CLOUDY    11   2  66 SW5       29.81F WCI   3
SHAWANO        CLOUDY    17   3  55 CALM      29.89F
OCONTO         CLOUDY    10   6  82 CALM      29.90F
STURGEON BAY   PTCLDY    15   5  64 W3        29.90F
GREEN BAY      CLOUDY    16   3  56 W5        29.91F WCI   9
MANITOWOC      CLOUDY    14   5  67 W5        29.92F WCI   6
APPLETON       CLOUDY    16   0  48 W3        29.88F
CLINTONVILLE   CLOUDY    16   0  48 CALM      29.89F
OSHKOSH        CLOUDY    16   4  59 SW3       29.89F
$$

WIZ032>034-041-042-053>061-130500-
SOUTHWEST WISCONSIN

CITY           SKY/WX    TMP DP  RH WIND       PRES   REMARKS
LA CROSSE      CLOUDY    24  13  62 S10       29.82F WCI  14
SPARTA         CLOUDY    21  12  68 SE3       29.84F
VIROQUA        CLOUDY    20  13  73 S8        29.82F WCI  11
BOSCOBEL       CLOUDY    26  10  50 SW5       29.89F WCI  20
PRAIRIE DU CHI CLOUDY    26  11  53 CALM      29.87F
PLATTEVILLE    CLOUDY    23  13  65 S8        29.88F WCI  14
$$

WIZ056-057-062-063-064-067-068-130500-
SOUTH CENTRAL WISCONSIN

CITY           SKY/WX    TMP DP  RH WIND       PRES   REMARKS
REEDSBURG      CLOUDY    18   9  67 S5        29.88F WCI  11
BARABOO/DELLS  CLOUDY    18  10  68 CALM      29.88F
LONE ROCK      CLOUDY    20  12  71 E7        29.90F WCI  11
MINERAL POINT  CLOUDY    25  12  58 S6        29.87F WCI  18
MADISON        FLURRIES  20   9  62 SW5       29.90F WCI  13
MIDDLETON      CLOUDY    21  11  64 CALM      29.91S
WATERTOWN      CLOUDY    17   5  59 CALM      29.91F
MONROE         CLOUDY    23  10  58 SW7       29.90F WCI  15
JANESVILLE     CLOUDY    23   9  54 SW6       29.93F WCI  16
$$

WIZ051-052-058>065-066-070>072-130500-
SOUTHEAST WISCONSIN

CITY           SKY/WX    TMP DP  RH WIND       PRES   REMARKS
MILWAUKEE      CLOUDY    20   2  45 W6        29.92F WCI  12
WAUKESHA       CLOUDY    18   3  53 W5        29.92F WCI  11
MILWAUKEE/TIMM CLOUDY    18   0  45 W5        29.93F WCI  11
RACINE         MOCLDY    19   3  49 W7        29.95F WCI  10
BURLINGTON       N/A    N/A N/A N/A MISG        N/A
KENOSHA        CLOUDY    19   5  54 CALM      29.94F
FOND DU LAC    CLOUDY    17   4  56 CALM      29.91F
SHEBOYGAN      CLOUDY    16   4  59 CALM      29.91F
WEST BEND      CLOUDY    18   1  49 W5        29.91F WCI  11
JUNEAU         CLOUDY    15   6  66 CALM      29.91F
$$

LSZ147-162-130500-
LAKE SUPERIOR

STATION/POSITION TIME  TEMP    WIND        PRES    WAVE
                       AIR SEA DIR/SP/G            HT/PER
                 (UTC) (F)     (DEG/KT/KT) (MB)    (FT/S)
DEVILS ISLAND    0400   15     180/  6/ 10 1010.1F
SAXON HARBOR     0330   13                 1009.5F
$$

LMZ867-665-643>646-130500-
LAKE MICHIGAN

STATION/POSITION TIME  TEMP    WIND        PRES    WAVE
                       AIR SEA DIR/SP/G            HT/PER
                 (UTC) (F)     (DEG/KT/KT) (MB)    (FT/S)
NORTHPORT PIER   0339   17     320/  5/ 15 1012.2F
KEWAUNEE LAKESHO 0348   14     270/  3/  5 1012.4F
SHEBOYGAN LAKESH 0400   16     300/  4/  5 1014.4F
PORT WASHINGTON  0330   18     280/  3/  6 1015.2F
MILWAUKEE LAKESH 0350   19     280/  5/  8   N/A
KENOSHA   LAKESH 0400   19     270/  5/ 11 1014.2
$$

TC  - TEMPERATURE IN CELSIUS
VSB - VISIBILITY IN STATUTE MILES
WCI - WIND CHILL INDEX
HX  - HEAT INDEX





USA.gov is the U.S. government's official web portal to all federal, state and local government web resources and services.